Location: St. Louis
(38.6270°N, 90.1994°W)
Time: 20:56:20
(UTC-06:00)

A-11 Canister half - Pass Details

Date: 07 December 2021
Orbit: 1524 x 1684 km, 47.3° (Epoch: 26 January)

Event Time Altitude Azimuth Distance (km) Brightness Sun altitude
Exits shadow 02:15:24 26° 55° (NE) 2,877 10.6 -55.6°
Drops below altitude 10° 02:19:01 10° 63° (ENE) 3,903 11.5 -54.9°
Sets 02:22:13 0° 67° (ENE) 4,872 12.2 -54.3°
